Skip Navigation Links
NOAA logo - Click to go to the NOAA homepage
NOAA's National Weather Service
Alaska Aviation Weather Unit
  NWS logo - Click to go to the NWS homepage
Left Navbar Graphic     00 AKDT = 08 GMT

   
NOAA is celebrating 200 years of science, service, and stewardship. Visit the NOAA 200th celebration Web site to learn more.
USA.gov is the U.S. Government's official Web portal to all Federal, state and local government Web resources and services.
Facebook
NWS on Facebook

Important Change Regarding the AAWU Web Presence

 

Over the last several months, the AAWU has been working to navigate its webpages to a nationally supported server. Security, as well as other needs, have necessitated the change.  We have been given an extension for the site changeover while we diligently work at addressing feedback received. As of July 14, 2017, aawu.arh.noaa.gov will be discontinued. The new AAWU web address is weather.gov/aawu. It is now live and will run in-parallel with the old site until it is discontinued on July 14, 2017. Please continue to send any feedback or questions regarding the new webpages to nws.ar.aawu.webauthors@noaa.gov.  Thank you for your patience during this time of transition.
AAWU Home :: Display TAF Add Bookmark
TAF CYDA 102338Z 1100/1103 VRB03KT P6SM FEW050 BKN230
    RMK NXT FCST WILL BE ISSUED AT 111445Z=

METAR CYDA 240200Z 02003KT 010V120 20SM FEW055 SCT140 SCT170 BKN220 14/09 A2964 RMK SC1AC2AC1CI1 CU EMBD SLP052 DENSITY ALT 1800FT= METAR CYDA 240300Z 00000KT 20SM FEW050 SCT140 SCT170 SCT210 BKN220 10/08 A2963 RMK CU1AC2AC1CC1CI1 CC TR CLIMAT 15.8/6.1/0.2 MM LAST STFD OBS/NXT 251300Z SLP049 DENSITY ALT 1300FT=
 Alaska TAF Map

NOAA's National Weather Service
Alaska Aviation Weather Unit
6930 Sand Lake Road
Anchorage, AK 99502-1845
Disclaimer
Credits
Glossary
Privacy Policy
About Us
Career Opportunities
Contact AAWU Internet Services Site last modified: April, 17th 2012